CDT,Max TemperatureF,Mean TemperatureF,Min TemperatureF,Max Dew PointF,MeanDew PointF,Min DewpointF,Max Humidity, Mean Humidity, Min Humidity, Max Sea Level PressureIn, Mean Sea Level PressureIn, Min Sea Level PressureIn, Max VisibilityMiles, Mean VisibilityMiles, Min VisibilityMiles, Max Wind SpeedMPH, Mean Wind SpeedMPH, Max Gust SpeedMPH,PrecipitationIn, CloudCover, Events, WindDirDegrees
2011-10-1,55,44,33,41,35,32,100,71,41,30.34,30.28,30.20,10,10,10,13,7,20,0.00,2,,344
2011-10-2,64,48,32,43,36,32,100,75,30,30.28,30.23,30.15,10,9,1,10,2,9,0.00,0,,286
2011-10-3,68,54,41,48,43,37,100,74,37,30.24,30.20,30.15,10,10,4,9,2,,0.00,0,,46
2011-10-4,73,56,39,48,43,37,100,70,27,30.30,30.25,30.20,10,10,5,7,1,,0.00,0,,225
2011-10-5,78,60,41,50,44,41,100,67,26,30.26,30.22,30.19,10,10,3,12,1,,0.00,0,,154
2011-10-6,77,59,41,52,45,41,100,71,32,30.27,30.23,30.21,10,9,1,10,2,,0.00,0,,129
2011-10-7,80,63,46,54,51,45,100,61,30,30.29,30.22,30.19,10,9,4,14,4,22,0.00,0,,162
2011-10-8,78,69,60,54,51,46,72,55,32,30.29,30.25,30.19,10,10,10,15,8,21,0.00,0,,192
2011-10-9,77,62,46,52,49,45,94,63,34,30.35,30.30,30.25,10,10,7,12,3,,0.00,0,,186
2011-10-10,71,58,44,55,48,43,100,81,41,30.26,30.15,30.05,10,8,2,15,2,18,0.00,0,,130
2011-10-11,75,62,50,57,52,48,100,76,47,30.05,29.98,29.92,10,9,4,12,2,16,0.00,3,Rain,149
2011-10-12,73,63,53,59,53,46,100,75,38,29.93,29.82,29.69,10,9,2,14,3,20,0.01,3,Rain,116
2011-10-13,60,56,53,57,53,46,100,89,68,29.66,29.54,29.45,10,8,2,22,6,29,0.23,7,Rain,208
2011-10-14,53,48,44,46,37,32,87,65,47,29.59,29.52,29.46,10,10,10,30,17,40,0.00,5,,278
2011-10-15,57,50,44,34,32,30,66,50,36,29.76,29.68,29.58,10,10,10,29,20,41,0.00,2,,274
2011-10-16,59,52,46,37,32,23,71,48,30,29.80,29.75,29.71,10,10,10,25,10,33,0.00,5,Rain,264
2011-10-17,55,48,41,30,28,25,65,47,31,29.76,29.74,29.71,10,10,10,22,15,33,0.00,0,,262
2011-10-18,50,42,35,36,32,28,81,67,53,29.89,29.83,29.76,10,10,10,14,5,25,0.00,3,,338
2011-10-19,46,42,37,39,35,32,87,74,57,29.88,29.80,29.65,10,10,7,22,12,36,0.00,8,Rain,360
2011-10-20,42,40,39,36,34,32,87,75,66,29.83,29.66,29.57,10,10,5,23,16,31,0.00,8,Rain,324
2011-10-21,51,42,32,34,32,28,100,72,41,30.04,30.00,29.87,10,10,10,10,6,,0.00,2,,288
2011-10-22,62,47,32,37,34,30,100,70,34,30.03,30.01,29.98,10,10,7,7,1,,0.00,0,,281
2011-10-23,60,46,32,45,37,32,100,76,34,29.98,29.90,29.77,10,8,2,21,2,30,0.02,4,Rain,219
2011-10-24,60,50,39,43,36,32,93,66,34,30.08,29.99,29.84,10,10,10,18,9,28,0.00,1,,264
2011-10-25,60,50,41,46,43,36,93,80,55,30.07,29.92,29.79,10,10,2,15,4,22,0.05,6,Rain,59
2011-10-26,44,42,39,43,39,34,100,85,66,29.99,29.93,29.84,10,9,5,15,10,25,0.00,7,,2
2011-10-27,48,40,32,34,33,30,100,76,50,30.12,30.02,29.97,10,10,10,12,4,,0.00,4,Rain,310
2011-10-28,51,40,28,37,28,19,100,70,30,30.14,30.08,30.00,10,9,2,12,2,20,0.00,3,Rain,237
2011-10-29,50,41,32,34,29,21,100,73,32,30.09,30.02,29.97,10,10,5,12,3,24,0.00,2,,289
2011-10-30,50,38,26,41,31,27,100,77,43,30.09,29.99,29.85,10,10,7,14,3,20,0.03,5,Rain,160
2011-10-31,46,39,32,41,35,32,100,81,61,30.10,30.00,29.90,10,8,0,9,4,,0.00,7,Fog,246